STARLINK-1090, 44968

Orbit data source: Space-Track

STARLINK-1090, 44968 is a payload satellite owned by SpaceX/Seattle (US) in LEO that was launched on Tue, 07 Jan 2020 UTC via an FALCON 9 launch vehicle from the Air Force Eastern Test Range (AFETR). Payload-class satellites include a variety of spacecraft equipped with specific instruments for various scientific and technological missions. These include communications satellites like Starlink; space stations such as the ISS; scientific satellites like the Hubble; Earth observation satellites from companies like Planet Labs, Umbra, and HawkEye 360; GPS; miniature CubeSats for education and research; and military/defense satellites.

Loading next visibility...
Identifier
44968, 2020-001BG
Orbit
LEO
Country
Flag of USUS
Related business
Manufacturer
SpaceX/Seattle
Mission
Operational Commercial Communications
Bus & Motor
STARLINK, Unknown motor
Mass
260 kg wet, ~248 kg dry
Launch date (UTC)
2020-01-07 (6 years ago)
Launch vehicle
FALCON 9
Launch site
Air Force Eastern Test Range (AFETR)
Object type
Payload
Rocket body
Debris
Shape & HBR
Box + 1 Pan, 10.1 m
Radar Cross Section
13.562 m², Large (>1 m²)

Expand to show TLE details & history
Last TLE update: 1 day ago

TLE from 1 day ago
0 STARLINK-1090
1 44968U 20001BG  25287.59799978  .00000858  00000-0  76494-4 0  9996
2 44968  53.0531 242.4509 0001394  87.5168 272.5980 15.06395071318392
Epoch: 2025-10-14T14:21Z
TLE epoch observation values (Epoch: 2025-10-14T14:21:07.180Z)
Latitude
-0.00009°
Longitude
3.78678°
Altitude
548.062 km
Speed
7.589 km/s
True Right ascension
16h 09m 48s
True Declination
0° 00' 00"
Sunlit
Object was in daylight at epoch
Visualization orbit readout
Latitude
Unknown
Longitude
Unknown
Altitude
Unknown
Speed
Unknown
Apparent Right ascension
Unknown
Apparent Declination
Unknown
Sunlit
N/A
Visualization observer readout
Local Sidereal Time
11:55:46
Azimuth
Unknown
Elevation
Unknown
Doppler factor
Unknown
Orbital elements
Apogee altitude
548.463 km
Perigee altitude
546.532 km
Semi-major axis
6,925.635 km
Eccentricity
0.00014
Inclination
53.0531°
RAAN
242.4509°
Arg. of periapsis
87.5168°
True anomaly
272.58204°
Mean anomaly
272.598°
Eccentric anomaly
272.59002°
Mean motion
3.76577 °/min
Orbital period
95.6 mins
BSTAR
0.000076494
Loading maneuver chart data...
Computing Atmospheric mass density...

Documentation

Showing up to 5 results
|